Cut Bank, MT

11:29 AM MST on December 08, 2019 (GMT -0700)
Cut Bank Municipal

Weather History for KCTB - November, 2019

Change the Weather History Date:

Saturday, November 16, 2019

  Actual Average Record
Temperature  
Mean Temperature 42 °F 30 °F  
Max Temperature 49 °F 40 °F 66 °F (1923)
Min Temperature 35 °F 20 °F -24 °F (1959)
Degree Days  
Heating Degree Days 23 35  
Month to date heating degree days 552 510  
Since 1 July heating degree days 2051 1734  
Cooling Degree Days 0 0  
Month to date cooling degree days 0 0  
Year to date cooling degree days 106 162  
Moisture  
Dew Point 25 °F    
Average Humidity 54    
Maximum Humidity 70    
Minimum Humidity 37    
Precipitation  
Precipitation 0.00 in 0.01 in 0.19 in (2016)
Month to date precipitation 0.22 0.20  
Year to date precipitation 11.95 10.52  
Snow  
Snow - - - ()
Snow Depth 0.00 in    
Sea Level Pressure  
Sea Level Pressure 30.09 in    
Wind  
Wind Speed 17 mph ()    
Max Wind Speed 39 mph    
Max Gust Speed 44 mph    
Visibility 10.0 miles    
Events      
T = Trace of Precipitation, MM = Missing Value Source: Averaged Metar Reports

Daily Weather History Graph

Daily Weather History Graph

Search for Another Location

Airport or City:

Astronomy

Nov. 16, 2019 Rise Set
Actual Time 7:39 AM MST 4:48 PM MST
Civil Twilight 7:04 AM MST 5:23 PM MST
Nautical Twilight 6:26 AM MST 6:01 PM MST
Astronomical Twilight 5:49 AM MST 6:38 PM MST
Moon 8:16 PM MST (11/16) 11:45 AM MST (11/16)
Length of Visible Light 10h 18m
Length of Day
9h 09m
Waning Gibbous, 82% of the Moon is Illuminated
Nov 16
Waning Gibbous
Nov 19
Last Quarter
Nov 26
New
Dec 3
First Quarter
Dec 11
Full

Hourly Weather History & Observations

Time (MST) Temp. Windchill Dew Point Humidity Pressure Visibility Wind Dir Wind Speed Gust Speed Precip Events Conditions
12:56 AM 39.9 °F 30.2 °F 28.0 °F 63% 29.93 in 10.0 mi West 20.7 mph - N/A   Overcast
1:56 AM 41.0 °F 31.6 °F 27.0 °F 57% 29.96 in 10.0 mi West 20.7 mph - N/A   Overcast
2:56 AM 41.0 °F 32.2 °F 27.0 °F 57% 29.99 in 10.0 mi West 18.4 mph - N/A   Overcast
3:56 AM 37.9 °F 30.0 °F 27.0 °F 65% 30.04 in 10.0 mi WNW 12.7 mph - N/A   Overcast
4:56 AM 37.0 °F 29.8 °F 27.0 °F 67% 30.09 in 10.0 mi NNW 10.4 mph - N/A   Overcast
5:56 AM 37.9 °F 31.5 °F 27.0 °F 65% 30.12 in 10.0 mi NNW 9.2 mph - N/A   Overcast
6:56 AM 37.0 °F 29.3 °F 26.1 °F 65% 30.14 in 10.0 mi NW 11.5 mph - N/A   Overcast
7:56 AM 36.0 °F 29.6 °F 27.0 °F 70% 30.17 in 10.0 mi NW 8.1 mph - N/A   Overcast
8:56 AM 39.9 °F 30.8 °F 27.0 °F 60% 30.17 in 10.0 mi West 18.4 mph - N/A   Clear
9:56 AM 44.1 °F 36.2 °F 26.1 °F 49% 30.18 in 10.0 mi West 18.4 mph - N/A   Clear
10:56 AM 46.0 °F 37.8 °F 24.1 °F 42% 30.18 in 10.0 mi WSW 23.0 mph - N/A   Clear
11:56 AM 48.0 °F - 23.0 °F 37% 30.17 in 10.0 mi West 15.0 mph - N/A   Clear
12:56 PM 48.0 °F - 23.0 °F 37% 30.15 in 10.0 mi West 18.4 mph 26.5 mph N/A   Clear
2:56 PM 46.9 °F - 23.0 °F 39% 30.14 in 10.0 mi West 21.9 mph 31.1 mph N/A   Clear
3:56 PM 42.1 °F 33.1 °F 23.0 °F 47% 30.17 in 10.0 mi WSW 20.7 mph - N/A   Clear
4:56 PM 39.9 °F 30.2 °F 23.0 °F 51% 30.16 in 10.0 mi West 20.7 mph - N/A   Clear
5:56 PM 39.9 °F 29.0 °F 23.0 °F 51% 30.14 in 10.0 mi WSW 26.5 mph 32.2 mph N/A   Clear
6:56 PM 37.9 °F 30.5 °F 23.0 °F 55% 30.13 in 10.0 mi SW 11.5 mph - N/A   Clear
7:56 PM 41.0 °F 30.7 °F 24.1 °F 51% 30.09 in 10.0 mi WSW 25.3 mph 34.5 mph N/A   Clear
8:56 PM 41.0 °F 30.2 °F 24.1 °F 51% 30.06 in 10.0 mi WSW 27.6 mph 39.1 mph N/A   Clear
9:56 PM 41.0 °F 29.7 °F 24.1 °F 51% 30.02 in 10.0 mi WSW 31.1 mph 41.4 mph N/A   Partly Cloudy
10:56 PM 41.0 °F 29.1 °F 26.1 °F 55% 29.98 in 10.0 mi WSW 34.5 mph 43.7 mph N/A   Clear
11:56 PM 42.1 °F 31.0 °F 27.0 °F 55% 29.94 in 10.0 mi WSW 32.2 mph 39.1 mph N/A   Scattered Clouds